Regional Weather Roundup
Issued by NWS

Home | Current Version | Previous Version | Text Only | Print | Product List | Glossary On
Versions: 1 2 3 4 5 6 7 8 9 10 11 12 13 14 15 16 17 18 19 20 21 22 23 24 25 26 27 28
000
ASUS45 KBOU 010107
RWRCO

WEATHER ROUNDUP FOR COLORADO
NATIONAL WEATHER SERVICE DENVER/BOULDER CO
700 PM MDT TUE MAY 31 2016

NOTE: "FAIR" INDICATES FEW OR NO CLOUDS BELOW 12000 FEET WITH NO
SIGNIFICANT WEATHER AND/OR OBSTRUCTIONS TO VISIBILITY.

COZ001>005-013-030-031-010200-
...NORTHWEST COLORADO...

CITY           SKY/WX    TMP DP  RH WIND       PRES   REMARKS
CRAIG          FAIR      69  36  29 N7        30.08R
HAYDEN         FAIR      66  32  28 W8        30.09S
MEEKER         FAIR      69  32  25 NE12      30.06S
MOUNT WERNER   NOT AVBL
STEAMBOAT SPGS FAIR      65  32  29 W6        30.10R
WALDEN         NOT AVBL
$$

COZ006>008-011-010200-
...WEST CENTRAL VALLEYS...

CITY           SKY/WX    TMP DP  RH WIND       PRES   REMARKS
GRAND JUNCTION FAIR      79  32  18 NE15      29.91S
MONTROSE       FAIR      77  27  15 NW14G20   29.98R
EAGLE          CLOUDY    70  28  21 N12       30.07R
RIFLE          FAIR      75  31  19 NW8       29.98S
DELTA          NOT AVBL
NUCLA          FAIR      77  25  14 N12       30.00S
$$

COZ017>023-064>068-010200-
...SOUTHWEST COLORADO...

CITY           SKY/WX    TMP DP  RH WIND       PRES   REMARKS
DURANGO        FAIR      72  30  21 N13       29.98R
CORTEZ         FAIR      79  30  16 N12G18    29.96R
PAGOSA SPRINGS FAIR      69  20  15 SW7       30.04S
TELLURIDE      FAIR      60  26  27 CALM      30.19S
WOLF CREEK PAS NOT AVBL
$$

COZ009-010-012-014-032>034-037-058>063-010200-
...CENTRAL COLORADO...

CITY           SKY/WX    TMP DP  RH WIND       PRES   REMARKS
ASPEN          PTSUNNY   62  33  33 NW7       30.13R
BUENA VISTA    NOT AVBL
COPPER MTN     NOT AVBL
BERTHOUD PASS  FAIR      34  27  75 NW24G30   30.38S WCI  21
COTTONWOOD PAS FAIR      63  19  19 CALM      30.23R
GUNNISON       FAIR      68  27  21 N10G16    30.10R
KREMMLING      FAIR      64  18  16 NW6G17    30.12S
LEADVILLE      FAIR      51  28  41 N15G23    30.25R
MONARCH PASS   CLOUDY    45  27  49 NE12G24   30.45S
SALIDA         FAIR      62  44  51 SE22G33   30.15R
SUNLIGHT       FAIR      52  28  40 CALM      30.34R
WILKERSON PASS RAIN      37  37 100 NE9G21    30.37R VSB 1/4
$$

COZ069>075-010200-
...SAN LUIS VALLEY/SANGRE DE CRISTO MOUNTAINS...

CITY           SKY/WX    TMP DP  RH WIND       PRES   REMARKS
ALAMOSA        FAIR      65  36  34 E13G22    30.05R
LA VETA PASS   LGT RAIN  41  37  87 SE5       30.27R
SAGUACHE       FAIR      68  28  22 NW7       30.06R
$$

COZ035-036-038>040-010200-
...NORTHERN COLORADO FRONT RANGE...

CITY           SKY/WX    TMP DP  RH WIND       PRES   REMARKS
DENVER INTL AP PTSUNNY   60  49  66 E7        30.10R
DMNS CITY PARK   N/A     63  49  59 E7G14     30.08S
AURORA         PTSUNNY   60  49  67 E8        30.11R
FRONT RANGE AP PTSUNNY   57  50  77 NE6       30.11R
ERIE MUNI ARPT PTSUNNY   64  45  50 N5        30.09R
BOULDER MUN AP FAIR      63  45  51 N6        30.09S
CENTENNIAL     TSTM      58  47  66 NE9       30.12R
BROOMFIELD     PTSUNNY   63  46  55 N12       30.11R
FORT COLLINS   FAIR      61  46  59 NW3       30.09R
LONGMONT       LGT RAIN  64  48  56 N3        30.11R
$$

COZ041-046-047-076>085-087-088-010200-
...PIKES PEAK/PALMER DIVIDE AND SOUTHERN FOOTHILLS...

CITY           SKY/WX    TMP DP  RH WIND       PRES   REMARKS
COLO. SPRINGS  TSTM      62  47  57 VRB6      30.10S
A. F. ACADEMY  TSTM      54  52  94 NW10      30.12R FOG
SCHRIEVER AFB  NOT AVBL
ELLICOTT       TSTM     N/A N/A N/A SE9       30.08S
FALCON         CLOUDY    56  49  75 CALM      30.15S
FORT CARSON    FAIR      63  47  55 CALM      30.06F
LIMON          TSTM      58  53  84 NE8       30.09R
MONUMENT HILL  PTSUNNY   54  46  76 CALM      30.16F
TRINIDAD       FAIR      67  41  38 W9        30.02S
$$

COZ042>045-048>051-090-091-010200-
...NORTHEAST COLORADO...

CITY           SKY/WX    TMP DP  RH WIND       PRES   REMARKS
GREELEY ARPT   FAIR      63  48  59 E12       30.09R
AKRON          FAIR      62  48  60 NE10      30.07S
BURLINGTON     PTSUNNY   66  45  46 E12       30.07R
WRAY           FAIR      68  46  45 N6        30.06R
STERLING       PTSUNNY   66  46  48 E5        30.05S
HOLYOKE        NOT AVBL
FORT MORGAN    LGT RAIN  59  50  71 N14       30.10R
$$

COZ086-089-092>099-010200-
...SOUTHEAST COLORADO...

CITY           SKY/WX    TMP DP  RH WIND       PRES   REMARKS
PUEBLO         FAIR      72  48  42 E13       29.98F
LA JUNTA       FAIR      73  51  46 E23       29.97F
LAMAR          FAIR      72  53  51 E20G25    29.97R
SPRINGFIELD      N/A     66  53  63 E16       30.01R
$$




USA.gov is the U.S. government's official web portal to all federal, state and local government web resources and services.